CAPE
2360 1988 1662 807 60 33 2 27 27 263 140 50 32 3 0 0 0 0 0 0 0 0 0 0 0 0 0 0 0 0 0 12 3 2 3 70 72 35 50 122 128 75 40
2131 1526 1326 346 0 17 8 70 426 304 170 51 36 20 14 0 0 0 0 0 0 0 0 0 0 0 0 0 0 0 0 0 5 0 0 0 4 4 31 53 100 79 15
1702 1359 1005 116 36 205 694 649 521 432 388 192 24 24 0 0 0 0 0 0 0 0 0 0 0 0 0 0 0 0 0 0 0 0 0 0 8 37 47 51 30 24 73
1430 580 63 688 768 764 539 514 450 541 502 222 8 0 0 4 0 0 0 0 0 0 0 0 0 0 0 0 0 0 0 0 3 0 0 0 0 0 0 0 0 0 0
480 131 307 882 647 465 465 454 418 250 72 2 0 0 0 0 0 0 0 0 0 0 0 0 0 0 0 0 0 0 0 0 0 7 1 0 0 0 0 0 0 0 0
240 389 682 638 444 417 451 249 166 37 0 0 0 0 0 0 0 0 0 0 0 0 0 0 0 0 0 0 0 0 0 0 0 0 0 0 0 0 0 0 0 0 10
568 824 800 485 265 269 260 117 49 0 0 0 0 0 0 0 0 0 0 0 0 0 0 0 0 0 0 0 0 0 0 0 0 0 0 1 0 0 0 0 0 0 0
535 479 443 296 147 57 15 2 0 0 0 0 0 0 0 0 0 0 0 0 0 0 0 0 0 0 0 0 0 0 0 0 0 0 0 0 0 0 0 0 0 0 16
208 210 17 0 0 0 0 0 0 0 0 0 0 0 0 0 0 0 0 0 0 0 0 0 0 0 0 0 0 0 0 0 0 0 0 0 0 0 0 0 0 0 0
8 0 0 0 0 0 0 0 0 0 0 0 0 0 0 0 0 0 0 0 0 0 0 0 0 0 0 0 0 0 1 0 0 0 0 0 0 0 0 0 0 0 0
82 0 0 0 0 0 0 0 0 0 0 0 0 0 0 0 0 0 0 0 0 0 0 0 0 0 0 0 0 0 0 0 1 0 0 0 0 0 0 0 6 15 0
0 0 0 0 0 0 0 0 0 0 0 0 0 0 0 0 0 0 0 0 0 0 0 0 0 0 0 0 0 0 0 0 0 0 0 1 2 0 0 0 0 0 4
0 0 0 0 0 0 0 0 0 0 0 0 0 0 0 0 0 0 0 0 0 0 0 0 0 0 0 0 0 0 0 0 1 0 0 0 0 2 0 0 0 0 0
0 0 0 0 0 0 0 0 0 0 0 0 0 0 0 0 0 0 0 0 0 0 0 0 0 0 0 0 0 0 0 0 0 1 2 1 1 0 0 0 0 0 2
0 0 0 0 0 0 0 0 0 0 0 0 0 0 0 0 0 0 0 0 0 0 0 0 0 0 0 0 0 0 0 0 0 0 1 2 1 1 0 0 1 8 15
0 0 0 0 0 0 0 0 0 0 0 0 0 0 0 0 0 0 0 0 0 0 0 0 0 0 0 0 0 0 0 0 1 1 1 1 2 3 3 2 4 1 2
0 0 0 0 0 0 0 0 0 0 0 0 0 0 0 0 0 0 0 0 0 0 0 0 0 0 0 0 0 0 0 0 0 1 1 2 2 1 3 2 2 1 0
0 0 0 0 0 0 0 0 0 0 0 0 0 0 0 0 0 0 0 0 0 0 0 0 0 0 0 0 0 0 0 0 0 1 1 1 1 2 2 1 2 3 3
0 0 0 0 0 0 0 0 0 0 0 0 0 0 0 0 0 0 0 0 0 0 0 0 0 0 0 0 0 0 0 0 0 0 0 2 1 1 2 2 2 2 2
0 0 0 0 0 0 0 0 0 0 0 0 0 0 0 0 0 0 0 0 0 0 0 0 0 0 0 0 0 0 0 0 0 0 0 1 2 2 3 3 3 4 3
0 0 0 0 0 0 0 0 0 0 0 0 0 0 0 0 0 0 0 0 0 0 0 0 0 0 0 0 0 0 0 0 0 0 0 0 1 3 2 2 3 3 4
0 0 0 0 0 0 0 0 0 0 0 0 0 0 0 0 0 0 0 0 0 0 0 0 0 0 0 0 0 0 0 0 0 0 0 0 0 1 2 3 3 3 3
0 0 0 0 0 0 0 0 0 0 0 0 0 0 0 0 0 0 0 0 0 0 0 0 0 0 0 0 0 0 0 0 0 0 0 0 0 0 0 4 3 5 5
0 0 0 1 0 0 1 3 1 0 0 0 0 0 0 0 0 0 0 0 0 0 0 0 0 0 0 0 0 0 0 0 0 0 0 0 0 0 1 5 6 5 5
0 0 1 2 2 2 0 9 0 0 6 10 1 0 0 0 0 0 0 0 0 0 0 0 0 0 0 0 0 0 0 0 0 0 0 0 0 0 0 5 4 4 4
0 0 0 0 11 15 22 19 10 9 13 10 0 4 0 0 0 0 0 0 0 0 0 0 0 0 0 0 0 0 0 0 0 0 0 0 0 0 0 5 5 5 5
CIN
-14 -22 -39 -107 -197 -253 -123 -124 -143 -72 -65 -66 -95 -46 0 0 0 0 0 0 0 0 0 0 0 0 0 0 0 0 0 -15 -4 -59 -11 -28 -26 -23 -31 -25 -25 -37 -49
-25 -57 -54 -141 -2 -185 -158 -146 -61 -34 -45 -90 -68 -104 -107 0 0 0 0 0 0 0 0 0 0 0 0 0 0 0 0 -1 -8 0 0 0 -93 -68 -47 -19 -17 -4 -39
-47 -61 -71 -164 -162 -121 -42 -33 -39 -36 -41 -47 -122 -94 0 0 0 0 0 0 0 0 0 0 0 0 0 0 0 0 0 0 0 0 0 0 -25 -32 -25 -27 -39 -29 -26
-53 -123 -201 -65 -51 -38 -38 -39 -50 -50 -38 -43 -30 0 0 -67 0 0 0 0 0 0 0 0 0 0 0 0 0 0 0 0 -10 0 0 0 0 0 0 0 0 0 -57
-133 -190 -112 -51 -48 -43 -37 -57 -52 -64 -74 -27 0 0 0 0 0 0 0 0 0 0 0 0 0 0 0 0 0 0 0 0 -3 -14 -3 0 0 0 0 0 0 0 0
-184 -90 -64 -61 -73 -59 -59 -90 -106 -85 0 0 0 0 0 0 0 0 0 0 0 0 0 0 0 0 0 0 0 0 0 0 0 0 0 0 0 0 0 0 0 0 -99
-89 -58 -75 -104 -94 -102 -133 -193 -168 0 0 0 0 0 0 0 0 0 0 0 0 0 0 0 0 0 0 0 0 0 0 0 0 0 0 -1 0 0 0 0 0 0 0
-86 -113 -119 -98 -110 -175 -201 -108 0 0 0 0 0 0 0 0 0 0 0 0 0 0 0 0 0 0 0 0 0 0 0 0 0 0 0 0 0 0 0 0 0 0 -29
-85 -140 -30 0 0 0 0 0 0 0 0 0 0 0 0 0 0 0 0 0 0 0 0 0 0 0 0 0 0 0 0 0 0 0 0 0 0 0 0 0 0 0 0
-327 0 -10 0 0 0 0 0 0 0 0 0 0 0 0 0 0 0 0 0 0 0 0 0 0 0 0 0 0 0 0 0 0 0 0 0 0 0 0 0 0 0 0
-232 0 0 0 0 0 0 0 0 0 0 0 0 0 0 0 0 0 0 0 0 0 0 0 0 0 0 0 0 0 0 0 0 0 0 0 0 0 0 0 -52 -33 0
0 0 0 0 0 0 0 0 0 0 0 0 0 0 0 0 0 0 0 0 0 0 0 0 0 0 0 0 0 0 0 0 0 0 0 0 0 0 0 0 0 0 -39
0 0 0 0 0 0 0 0 0 0 0 0 0 0 0 0 0 0 0 0 0 0 0 0 0 0 0 0 0 0 0 0 0 0 0 0 0 0 0 0 0 0 0
0 0 0 0 0 0 0 0 0 0 0 0 0 0 0 0 0 0 0 0 0 0 0 0 0 0 0 0 0 0 0 0 0 0 0 0 0 0 0 0 0 0 -11
0 0 0 0 0 0 0 0 0 0 0 0 0 0 0 0 0 0 0 0 0 0 0 0 0 0 0 0 0 0 0 0 0 0 0 0 0 0 0 0 -26 -56 -26
0 0 0 0 0 0 0 0 0 0 0 0 0 0 0 0 0 0 0 0 0 0 0 0 0 0 0 0 0 0 0 0 0 0 0 0 0 0 0 0 -13 -19 -72
0 0 0 0 0 0 0 0 0 0 0 0 0 0 0 0 0 0 0 0 0 0 0 0 0 0 0 0 0 0 0 0 0 0 0 0 0 0 0 0 0 0 0
0 0 0 0 0 0 0 0 0 0 0 0 0 0 0 0 0 0 0 0 0 0 0 0 0 0 0 0 0 0 0 0 0 0 0 0 0 0 0 0 0 0 0
0 0 0 0 0 0 0 0 0 0 0 0 0 0 0 0 0 0 0 0 0 0 0 0 0 0 0 0 0 0 0 0 0 0 0 0 0 0 0 0 0 0 0
0 0 0 0 0 0 0 0 0 0 0 0 0 0 0 0 0 0 0 0 0 0 0 0 0 0 0 0 0 0 0 0 0 0 0 0 0 0 0 0 0 0 0
0 0 0 0 0 0 0 0 0 0 0 0 0 0 0 0 0 0 0 0 0 0 0 0 0 0 0 0 0 0 0 0 0 0 0 0 0 0 0 0 0 0 0
0 0 0 0 0 0 0 0 0 0 0 0 0 0 0 0 0 0 0 0 0 0 0 0 0 0 0 0 0 0 0 0 0 0 0 0 0 0 0 0 0 0 0
0 0 0 0 0 0 0 0 0 0 0 0 0 0 0 0 0 0 0 0 0 0 0 0 0 0 0 0 0 0 0 0 0 0 0 0 0 0 0 0 0 0 0
0 0 0 -70 0 0 -44 -53 -32 0 0 0 0 0 0 0 0 0 0 0 0 0 0 0 0 0 0 0 0 0 0 0 0 0 0 0 0 0 0 0 0 0 0
0 0 -100 -79 -45 -44 -5 -43 -4 0 -40 -39 -31 0 0 0 0 0 0 0 0 0 0 0 0 0 0 0 0 0 0 0 0 0 0 0 0 0 0 0 0 0 0
0 0 0 0 -45 -42 -30 -34 -35 -33 -27 -36 0 -69 0 0 0 0 0 0 0 0 0 0 0 0 0 0 0 0 0 0 0 0 0 0 0 0 0 0 0 0 0
Wind_Speed
14 14 13 14 16 16 15 14 16 17 20 23 23 25 27 28 26 27 30 31 32 32 31 30 30 28 26 23 20 18 15 11 7 6 14 13 12 21 16 20 23 17 21
15 16 16 16 16 14 15 16 17 19 22 24 24 25 27 28 25 27 30 31 32 33 32 31 30 28 28 28 26 24 22 19 14 19 24 22 17 15 16 22 14 19 21
15 14 14 13 13 15 16 16 19 20 22 24 26 26 28 29 26 27 28 30 32 33 32 31 31 30 31 28 28 28 26 23 21 21 27 24 21 18 20 24 26 23 21
12 12 13 13 14 14 16 18 20 21 23 25 26 28 28 29 27 28 30 32 33 33 31 30 31 31 31 30 30 30 29 27 24 25 26 27 27 27 24 26 28 24 27
9 11 11 12 13 14 16 19 21 22 23 25 26 27 28 29 30 30 31 32 32 31 31 31 31 30 31 31 31 32 32 31 30 29 29 28 30 31 32 29 30 32 32
7 9 10 11 14 15 17 19 20 22 24 26 27 27 28 29 30 30 29 29 30 32 33 34 33 31 32 33 34 34 32 31 30 29 29 32 29 29 30 33 34 32 31
6 7 9 11 14 15 15 18 22 24 25 25 24 25 26 28 30 30 30 31 32 34 34 34 34 31 33 35 37 36 35 34 31 30 30 30 31 31 33 34 32 33 34
4 8 9 12 14 14 17 19 19 20 22 23 22 23 25 28 31 33 32 32 33 33 34 35 34 34 35 39 38 37 35 35 34 35 35 36 35 35 33 33 35 33 31
7 9 11 13 16 16 18 20 22 22 23 20 20 23 26 29 34 34 33 33 34 34 34 35 36 37 40 40 38 37 37 38 35 36 37 40 42 40 37 35 35 34 35
8 9 12 14 15 17 19 22 22 21 19 19 21 24 27 30 33 35 34 33 34 35 35 36 37 39 41 41 39 38 39 39 38 38 38 39 39 40 38 33 33 34 33
9 11 13 14 16 18 19 18 18 19 19 20 22 24 26 30 31 33 34 34 35 36 37 37 38 40 42 40 38 37 39 39 38 34 34 34 34 35 35 34 30 29 31
9 11 13 15 16 17 18 18 18 19 19 20 22 24 26 28 30 33 35 36 37 38 40 40 40 42 42 40 39 41 41 38 36 36 36 35 35 35 35 36 35 33 29
9 11 13 14 15 15 16 18 19 19 19 19 20 22 25 27 29 31 34 36 36 37 37 39 41 42 42 41 40 40 39 38 39 39 39 37 36 36 35 34 34 34 33
9 11 13 14 14 14 15 16 17 17 17 17 20 22 25 27 28 28 30 33 35 36 36 38 40 42 43 43 44 42 40 39 39 39 39 38 36 36 35 33 35 36 35
9 10 12 13 13 13 14 15 16 15 15 17 19 21 23 26 27 27 29 32 34 35 36 38 42 44 46 47 46 44 42 41 40 40 38 39 38 37 36 36 35 34 33
10 11 10 13 13 14 14 14 16 14 14 15 15 18 19 21 23 26 28 28 30 33 36 40 42 44 46 47 49 48 44 42 41 41 40 38 39 38 39 37 34 33 34
11 13 12 14 16 14 14 14 14 15 14 14 14 16 19 21 23 23 24 26 27 29 35 37 39 41 43 44 46 47 46 42 40 38 38 37 37 37 38 38 37 36 36
12 12 12 14 15 14 15 15 15 14 17 17 14 14 17 19 20 20 22 26 28 27 29 33 36 38 40 41 42 44 43 41 38 37 37 36 35 35 36 36 37 38 37
12 14 11 14 16 16 17 20 16 16 18 20 23 21 19 17 16 16 18 20 23 26 27 28 30 34 36 37 36 37 37 37 36 35 36 36 35 35 35 35 36 38 40
14 10 12 13 15 16 17 18 18 18 21 22 21 22 23 25 25 22 20 21 22 24 26 26 27 29 31 31 29 29 29 28 31 33 34 33 33 33 33 34 35 36 38
13 11 10 14 14 18 18 17 16 18 19 20 21 21 21 22 24 25 26 26 25 26 26 25 25 26 25 24 22 20 20 12 11 17 22 23 30 35 27 26 34 35 37
16 14 17 18 13 9 12 13 14 17 19 19 20 22 24 23 24 29 32 32 31 28 25 23 24 24 21 20 17 13 11 11 11 14 15 13 13 14 22 20 35 37 39
13 12 9 15 16 16 10 11 15 16 16 17 19 22 25 21 27 35 37 36 34 33 30 27 25 21 19 17 13 9 9 9 11 15 14 15 15 19 16 14 12 25 37
10 9 14 16 16 16 9 8 12 14 16 21 24 22 20 23 30 38 36 34 36 36 36 36 29 22 19 15 9 8 10 8 12 17 17 17 16 17 16 12 11 9 18
9 11 15 25 21 18 13 13 17 21 26 24 24 25 29 33 36 34 35 36 38 39 37 33 28 26 27 22 27 29 13 12 10 12 13 17 15 15 15 15 10 7 11
7 12 20 23 20 21 21 21 22 24 24 23 24 29 31 30 31 34 36 39 40 40 37 31 29 27 25 24 31 35 35 37 37 22 12 16 19 19 15 14 14 13 12
Wind_Direction
105 99 92 86 89 89 79 50 2 1 0 2 360 354 347 346 355 355 353 349 347 342 345 346 344 347 354 359 7 9 14 18 12 8 341 332 328 316 311 302 299 296 301
109 107 102 95 94 92 77 59 26 6 360 356 353 349 344 346 360 353 350 347 345 341 344 346 343 346 344 342 342 343 347 352 356 343 335 333 332 335 328 310 319 302 303
111 101 94 84 71 59 54 40 15 6 357 351 347 347 344 341 354 349 349 346 345 343 347 346 345 343 338 339 336 335 332 332 336 332 324 331 337 342 334 322 311 306 308
106 96 82 66 54 47 27 14 10 6 358 351 346 344 343 341 350 348 346 343 343 345 348 348 344 342 342 341 338 334 331 330 328 324 322 320 319 318 323 321 313 317 309
104 95 81 58 40 26 12 6 6 1 357 353 352 348 347 347 343 342 343 343 345 348 349 346 346 345 340 339 337 331 328 326 324 322 319 318 315 311 307 312 310 304 303
94 88 78 49 28 14 3 1 360 355 354 349 349 351 351 351 349 352 354 352 347 344 341 339 338 341 336 331 326 324 329 330 328 327 323 315 317 317 313 303 300 303 304
101 72 57 46 36 30 27 8 353 346 349 345 356 357 357 356 354 354 352 349 345 341 338 337 336 339 336 330 325 323 321 321 324 323 323 318 312 315 313 308 304 298 293
333 55 36 37 33 41 25 16 19 11 359 349 358 5 4 359 352 348 350 351 349 347 345 342 340 338 333 327 325 323 322 318 316 313 309 306 305 308 309 306 303 301 301
74 39 26 23 14 18 17 14 7 3 357 6 11 4 359 353 347 350 352 351 349 348 348 346 343 338 332 328 330 328 323 317 318 312 307 299 294 297 301 305 299 298 295
35 26 20 13 14 11 7 2 4 10 17 20 11 5 0 354 350 350 352 354 352 351 350 348 345 340 335 334 334 332 327 324 320 314 310 305 301 294 294 298 298 294 294
54 34 22 19 10 7 5 15 16 15 17 11 7 4 2 358 358 0 1 1 358 355 352 349 347 342 339 338 336 334 328 324 323 322 319 316 313 306 300 298 298 297 293
39 25 20 12 11 16 20 18 16 14 14 10 10 11 11 10 9 8 8 8 6 3 357 354 352 347 344 342 339 331 328 327 326 323 319 316 314 312 306 298 293 294 295
36 27 18 17 13 23 20 16 13 17 15 15 17 14 9 9 9 9 6 5 5 3 4 2 359 356 353 349 343 340 336 329 324 319 315 314 313 309 306 305 297 293 293
42 33 26 20 21 29 24 22 21 18 19 21 16 9 5 3 4 3 3 4 3 2 2 1 358 357 355 351 346 341 337 332 327 321 316 313 312 309 307 306 301 296 289
43 35 25 21 19 17 17 17 20 22 23 12 5 4 2 359 1 3 360 356 358 359 358 357 355 354 353 352 349 344 339 333 329 325 319 314 309 305 303 302 299 297 293
26 18 22 17 12 9 11 9 6 16 18 14 15 10 5 1 0 358 357 357 357 357 356 355 355 354 352 351 350 346 343 336 330 325 320 317 309 303 298 297 298 296 290
8 3 11 7 360 3 5 4 1 2 8 6 4 1 358 355 355 357 356 355 354 355 354 354 355 355 354 354 353 352 345 342 336 329 323 318 315 308 300 295 294 291 291
357 360 2 0 359 359 359 357 353 353 356 357 359 356 353 351 350 352 353 353 352 352 351 352 353 354 355 354 354 355 355 350 346 334 326 321 319 316 309 300 293 290 289
354 351 0 360 360 1 355 354 354 352 351 351 350 354 355 356 352 348 349 349 350 350 350 350 351 353 354 354 356 359 1 0 355 350 338 331 327 325 321 311 300 291 287
355 1 359 359 354 358 357 353 344 344 345 351 356 356 356 358 0 359 355 350 348 346 348 348 349 351 352 354 357 360 3 7 3 357 352 352 345 339 334 322 309 300 291
357 8 11 360 0 349 357 360 359 354 355 354 355 358 360 359 359 357 356 355 351 350 347 348 349 349 351 353 355 359 1 351 358 11 8 6 354 340 348 342 320 310 296
343 338 352 349 4 19 12 7 3 355 352 354 356 356 356 1 2 359 355 353 353 353 354 355 350 349 350 351 353 349 341 339 350 2 2 354 349 348 351 344 323 311 299
1 358 3 355 352 344 342 354 354 356 2 3 359 357 355 2 358 354 351 353 356 358 360 356 351 350 350 351 348 337 327 328 353 5 356 354 347 347 334 308 298 286 303
3 23 358 356 357 358 4 5 5 2 2 354 353 358 3 0 355 349 355 358 356 355 356 355 357 357 355 354 339 347 358 353 4 5 2 354 341 333 336 318 317 285 251
34 20 13 352 4 9 22 11 357 354 344 352 357 355 349 344 347 358 357 356 353 351 354 357 1 4 2 4 356 347 7 5 354 353 355 3 349 331 335 354 321 310 328
42 19 1 355 2 360 358 352 350 348 354 353 356 354 349 351 353 356 356 353 352 350 354 0 2 3 5 7 353 333 328 328 342 338 355 7 5 2 343 328 347 342 314